This is the latest recevied weather packets stored in our database for station/object IZ1UQG-1. If no packets are shown the sender has not sent any weather packets the latest 10 day(s).
| Time | Temp. | Humidity | Pressure | Rain* | Wind** | Luminosity | Snow |
|---|---|---|---|---|---|---|---|
| 1777805639 | 26.67° C | 42% | 1016.8 hPa | 185.93 mm | - | - | - |
| 1777805339 | 26.11° C | 43% | 1016.8 hPa | 173.99 mm | - | - | - |
| 1777805040 | 25.56° C | 44% | 1016.7 hPa | 178.05 mm | - | - | - |
| 1777804739 | 25.56° C | 44% | 1016.6 hPa | 183.13 mm | - | - | - |
| 1777804440 | 25.56° C | 43% | 1016.7 hPa | 201.42 mm | - | - | - |
| 1777804139 | 25.56° C | 43% | 1016.9 hPa | 193.04 mm | - | - | - |
| 1777803839 | 25° C | 43% | 1017 hPa | 186.44 mm | - | - | - |
| 1777803539 | 25° C | 43% | 1017.1 hPa | 192.02 mm | - | - | - |
| 1777803240 | 25° C | 42% | 1017.1 hPa | 220.47 mm | - | - | - |
| 1777802939 | 25° C | 42% | 1017 hPa | 231.9 mm | - | - | - |
| 1777802639 | 25.56° C | 40% | 1017.1 hPa | 225.3 mm | - | - | - |
| 1777802339 | 25.56° C | 40% | 1017.1 hPa | 209.55 mm | - | - | - |
| 1777802039 | 26.11° C | 39% | 1017.1 hPa | 1.78 mm | - | - | - |
| 1777801740 | 26.11° C | 40% | 1017.1 hPa | 0.76 mm | - | - | - |
| 1777801440 | 26.11° C | 40% | 1017.1 hPa | 7.87 mm | - | - | - |
| 1777801140 | 26.67° C | 40% | 1017.2 hPa | 10.67 mm | - | - | - |
| 1777800840 | 26.67° C | 40% | 1017.2 hPa | 32.26 mm | - | - | - |
| 1777800540 | 26.11° C | 40% | 1017.3 hPa | 31.75 mm | - | - | - |
| 1777800240 | 26.11° C | 39% | 1017.2 hPa | 30.23 mm | - | - | - |
| 1777799940 | 25.56° C | 40% | 1017.2 hPa | 35.56 mm | - | - | - |
| 1777799640 | 25.56° C | 41% | 1017.2 hPa | 77.98 mm | - | - | - |
| 1777799340 | 25° C | 43% | 1017.3 hPa | 100.08 mm | - | - | - |
| 1777799040 | 25° C | 42% | 1017.2 hPa | 97.54 mm | - | - | - |
| 1777798740 | 24.44° C | 44% | 1017.5 hPa | 81.53 mm | - | - | - |
| 1777798440 | 24.44° C | 45% | 1017.5 hPa | 141.22 mm | - | - | - |
* Rain latest hour (hover to see other rain measurements)
** Current wind speed in m/s (hover to see current wind gust speed)